Weather History for Novato, CA

Change the Weather History Date:

Wednesday, June 19, 2013

  Actual Average (KAPC) Record (KAPC)
Temperature  
Mean Temperature 62 °F 65 °F  
Max Temperature 73 °F 79 °F 96 °F (2008)
Min Temperature 50 °F 51 °F 43 °F (2005)
Degree Days  
Heating Degree Days 4    
Month to date heating degree days  
Since 1 June heating degree days  
Since 1 July heating degree days  
Cooling Degree Days 0    
Month to date cooling degree days  
Year to date cooling degree days  
Since 1 June cooling degree days  
Growing Degree Days 12 (Base 50)    
Moisture  
Dew Point 46 °F    
Average Humidity 56    
Maximum Humidity 87    
Minimum Humidity 36    
Precipitation  
Precipitation 0.00 in - 0.03 in (1956)
Month to date precipitation  
Year to date precipitation  
Since 1 July precipitation  
Sea Level Pressure  
Sea Level Pressure 30.03 in    
Wind  
Wind Speed 9 mph (WNW)    
Max Wind Speed 22 mph    
Max Gust Speed 29 mph    
Visibility 10 miles    
Events      
T = Trace of Precipitation, MM = Missing Value Source: NWS Daily Summary

Daily Weather History Graph

Daily Weather History Graph

Search for Another Location

Airport:

Trip Planner

Search our weather history database for the weather conditions in past years. The results will help you decide how hot, cold, wet, or windy it might be!

Date:

Astronomy

Jun. 19, 2013 Rise Set
Actual Time 5:47 AM PDT 8:36 PM PDT
Civil Twilight 5:15 AM PDT 9:07 PM PDT
Nautical Twilight 4:35 AM PDT 9:47 PM PDT
Astronomical Twilight 3:50 AM PDT 10:32 PM PDT
Moon 4:37 PM PDT (6/19) 2:32 AM PDT (6/19)
Length of Visible Light 15h 52m
Length of Day
14h 49m
Waxing Gibbous, 81% of the Moon is Illuminated
Jun 19
Waxing Gibbous
Jun 23
Full
Jun 29
Last Quarter
Jul 8
New
Jul 15
First Quarter

Hourly Weather History & Observations

Time (PDT) Temp. Dew Point Humidity Pressure Visibility Wind Dir Wind Speed Gust Speed Precip Events Conditions
12:15 AM 57.2 °F 46.4 °F 67% 30.03 in 10.0 mi West 10.4 mph - N/A   Clear
12:35 AM 57.2 °F 46.4 °F 67% 30.03 in 10.0 mi West 9.2 mph - N/A   Clear
12:55 AM 57.2 °F 46.4 °F 67% 30.04 in 10.0 mi West 9.2 mph - N/A   Clear
1:15 AM 55.4 °F 46.4 °F 72% 30.03 in 10.0 mi West 6.9 mph - N/A   Clear
1:35 AM 55.4 °F 46.4 °F 72% 30.03 in 10.0 mi West 8.1 mph - N/A   Clear
1:55 AM 55.4 °F 44.6 °F 67% 30.02 in 10.0 mi West 9.2 mph - N/A   Clear
2:15 AM 55.4 °F 44.6 °F 67% 30.01 in 10.0 mi West 10.4 mph 18.4 mph N/A   Clear
2:35 AM 57.2 °F 44.6 °F 63% 30.01 in 10.0 mi West 9.2 mph - N/A   Clear
2:55 AM 57.2 °F 44.6 °F 63% 30.02 in 10.0 mi West 9.2 mph 19.6 mph N/A   Clear
3:15 AM 57.2 °F 44.6 °F 63% 30.02 in 10.0 mi West 8.1 mph 17.3 mph N/A   Clear
3:35 AM 57.2 °F 44.6 °F 63% 30.02 in 10.0 mi WNW 5.8 mph - N/A   Clear
3:55 AM 57.2 °F 44.6 °F 63% 30.02 in 10.0 mi West 8.1 mph 18.4 mph N/A   Clear
4:15 AM 51.8 °F 46.4 °F 82% 30.02 in 10.0 mi North 4.6 mph - N/A   Clear
4:35 AM 51.8 °F 46.4 °F 82% 30.02 in 10.0 mi WNW 3.5 mph - N/A   Clear
4:55 AM 55.4 °F 44.6 °F 67% 30.02 in 10.0 mi WNW 4.6 mph - N/A   Clear
5:15 AM 53.6 °F 46.4 °F 77% 30.03 in 10.0 mi Calm Calm - N/A   Clear
5:35 AM 50.0 °F 46.4 °F 87% 30.02 in 10.0 mi East 3.5 mph - N/A   Clear
5:55 AM 50.0 °F 46.4 °F 87% 30.03 in 10.0 mi Calm Calm - N/A   Clear
6:15 AM 55.4 °F 46.4 °F 72% 30.03 in 10.0 mi WNW 8.1 mph - N/A   Clear
6:35 AM 57.2 °F 46.4 °F 67% 30.03 in 10.0 mi NW 5.8 mph - N/A   Clear
6:55 AM 57.2 °F 46.4 °F 67% 30.04 in 10.0 mi NNW 10.4 mph - N/A   Clear
7:15 AM 55.4 °F 46.4 °F 72% 30.04 in 10.0 mi North 8.1 mph - N/A   Clear
7:35 AM 59.0 °F 46.4 °F 63% 30.05 in 10.0 mi NW 11.5 mph - N/A   Clear
7:55 AM 59.0 °F 46.4 °F 63% 30.05 in 10.0 mi NW 9.2 mph - N/A   Clear
8:15 AM 59.0 °F 44.6 °F 59% 30.05 in 10.0 mi NNW 11.5 mph - N/A   Clear
8:35 AM 60.8 °F 46.4 °F 59% 30.06 in 10.0 mi NW 9.2 mph 16.1 mph N/A   Clear
8:55 AM 62.6 °F 46.4 °F 55% 30.06 in 10.0 mi NNW 11.5 mph - N/A   Clear
9:15 AM 62.6 °F 46.4 °F 55% 30.07 in 10.0 mi NNW 9.2 mph - N/A   Clear
9:35 AM 62.6 °F 46.4 °F 55% 30.07 in 10.0 mi NW 8.1 mph - N/A   Clear
9:55 AM 64.4 °F 46.4 °F 52% 30.06 in 10.0 mi NNW 8.1 mph - N/A   Clear
10:15 AM 66.2 °F 44.6 °F 46% 30.06 in 10.0 mi North 6.9 mph - N/A   Clear
10:35 AM 66.2 °F 44.6 °F 46% 30.06 in 10.0 mi North 9.2 mph - N/A   Clear
10:55 AM 68.0 °F 44.6 °F 43% 30.06 in 10.0 mi North 6.9 mph - N/A   Clear
11:15 AM 69.8 °F 46.4 °F 43% 30.06 in 10.0 mi NW 9.2 mph - N/A   Clear
11:35 AM 68.0 °F 46.4 °F 46% 30.06 in 10.0 mi West 5.8 mph - N/A   Clear
11:55 AM 68.0 °F 44.6 °F 43% 30.06 in 10.0 mi West 3.5 mph - N/A   Clear
12:15 PM 71.6 °F 44.6 °F 38% 30.06 in 10.0 mi North 4.6 mph - N/A   Clear
12:35 PM 73.4 °F 44.6 °F 36% 30.05 in 10.0 mi WNW 6.9 mph - N/A   Clear
12:55 PM 71.6 °F 46.4 °F 41% 30.05 in 10.0 mi WNW 10.4 mph - N/A   Clear
1:15 PM 73.4 °F 46.4 °F 38% 30.04 in 10.0 mi West 8.1 mph - N/A   Clear
1:35 PM 73.4 °F 48.2 °F 41% 30.04 in 10.0 mi West 12.7 mph 17.3 mph N/A   Clear
1:55 PM 71.6 °F 46.4 °F 41% 30.04 in 10.0 mi WSW 17.3 mph - N/A   Clear
2:15 PM 71.6 °F 46.4 °F 41% 30.03 in 10.0 mi WSW 20.7 mph - N/A   Clear
2:35 PM 73.4 °F 46.4 °F 38% 30.03 in 10.0 mi WSW 20.7 mph 24.2 mph N/A   Clear
2:55 PM 73.4 °F 46.4 °F 38% 30.02 in 10.0 mi WSW 20.7 mph 24.2 mph N/A   Clear
3:15 PM 73.4 °F 46.4 °F 38% 30.03 in 10.0 mi West 15.0 mph 25.3 mph N/A   Clear
3:35 PM 73.4 °F 46.4 °F 38% 30.02 in 10.0 mi WSW 20.7 mph 26.5 mph N/A   Clear
3:55 PM 71.6 °F 44.6 °F 38% 30.01 in 10.0 mi WSW 18.4 mph 28.8 mph N/A   Clear
4:15 PM 71.6 °F 44.6 °F 38% 30.01 in 10.0 mi WSW 21.9 mph 26.5 mph N/A   Clear
4:35 PM 71.6 °F 44.6 °F 38% 30.01 in 10.0 mi WSW 20.7 mph 27.6 mph N/A   Clear
4:55 PM 71.6 °F 46.4 °F 41% 30.01 in 10.0 mi WSW 17.3 mph 24.2 mph N/A   Clear
5:15 PM 71.6 °F 46.4 °F 41% 30.00 in 10.0 mi WSW 21.9 mph 26.5 mph N/A   Clear
5:35 PM 71.6 °F 46.4 °F 41% 30.00 in 10.0 mi West 19.6 mph 26.5 mph N/A   Clear
5:55 PM 71.6 °F 46.4 °F 41% 29.99 in 10.0 mi West 18.4 mph 26.5 mph N/A   Clear
6:15 PM 69.8 °F 46.4 °F 43% 29.99 in 10.0 mi WSW 18.4 mph 25.3 mph N/A   Clear
6:35 PM 68.0 °F 46.4 °F 46% 30.00 in 10.0 mi WSW 12.7 mph 20.7 mph N/A   Clear
6:55 PM 68.0 °F 46.4 °F 46% 29.99 in 10.0 mi West 13.8 mph 23.0 mph N/A   Clear
7:15 PM 66.2 °F 46.4 °F 49% 30.00 in 10.0 mi WNW 5.8 mph - N/A   Clear
7:35 PM 66.2 °F 46.4 °F 49% 30.00 in 10.0 mi West 11.5 mph 19.6 mph N/A   Clear
7:55 PM 64.4 °F 46.4 °F 52% 30.01 in 10.0 mi SE 6.9 mph - N/A   Clear
8:15 PM 62.6 °F 46.4 °F 55% 30.01 in 10.0 mi ENE 3.5 mph - N/A   Clear
8:35 PM 62.6 °F 46.4 °F 55% 30.01 in 10.0 mi NNE 5.8 mph - N/A   Clear
8:55 PM 59.0 °F 46.4 °F 63% 30.02 in 10.0 mi South 10.4 mph - N/A   Clear
9:15 PM 59.0 °F 46.4 °F 63% 30.02 in 10.0 mi South 11.5 mph - N/A   Clear
9:35 PM 59.0 °F 48.2 °F 67% 30.02 in 10.0 mi South 13.8 mph - N/A   Clear
9:55 PM 59.0 °F 48.2 °F 67% 30.02 in 10.0 mi East 6.9 mph - N/A   Clear
10:15 PM 59.0 °F 46.4 °F 63% 30.03 in 10.0 mi East 4.6 mph - N/A   Clear
10:35 PM 59.0 °F 46.4 °F 63% 30.03 in 10.0 mi SW 5.8 mph - N/A   Clear
10:55 PM 57.2 °F 46.4 °F 67% 30.03 in 10.0 mi ESE 5.8 mph - N/A   Clear
11:15 PM 57.2 °F 46.4 °F 67% 30.03 in 10.0 mi East 3.5 mph - N/A   Clear
11:35 PM 55.4 °F 46.4 °F 72% 30.03 in 10.0 mi Calm Calm - N/A   Clear
11:55 PM 55.4 °F 46.4 °F 72% 30.03 in 10.0 mi Calm Calm - N/A   Clear